Location: Bergheim
(50.9593°N, 6.6400°E)
Time: 10:29:16
(UTC+02:00)

ISS - Pass Details

Date: 22 May 2021
Orbit: 417 x 422 km, 51.6° (Epoch: 13 June)

Event Time Altitude Azimuth Distance (km) Brightness Sun altitude
Rises 22:56:02 0° 275° (W) 2,366 0.7 -10.9°
Reaches altitude 10° 22:58:08 10° 277° (W) 1,502 -0.3 -11.1°
Maximum altitude 23:01:31 78° 4° (N) 434 -3.6 -11.4°
Drops below altitude 10° 23:04:53 10° 91° (E) 1,504 -1.3 -11.7°
Enters shadow 23:05:24 - 92° (E) 1,710 -1.0 -11.7°
